EDT,Max TemperatureF,Mean TemperatureF,Min TemperatureF,Max Dew PointF,MeanDew PointF,Min DewpointF,Max Humidity, Mean Humidity, Min Humidity, Max Sea Level PressureIn, Mean Sea Level PressureIn, Min Sea Level PressureIn, Max VisibilityMiles, Mean VisibilityMiles, Min VisibilityMiles, Max Wind SpeedMPH, Mean Wind SpeedMPH, Max Gust SpeedMPH,PrecipitationIn, CloudCover, Events, WindDirDegrees
2012-4-1,66,52,39,53,45,35,86,74,63,29.91,29.77,29.68,10,6,3,14,8,22,0.00,5,,93
2012-4-2,61,50,41,43,38,34,80,64,44,30.01,29.94,29.81,10,8,5,20,11,24,0.00,1,,92
2012-4-3,75,58,44,56,43,33,75,59,48,29.99,29.90,29.79,10,10,9,13,9,18,0.00,3,,109
2012-4-4,64,54,45,50,37,31,80,55,30,29.97,29.91,29.86,10,10,8,14,8,21,0.00,0,,35
2012-4-5,54,46,37,33,30,27,77,57,41,30.14,30.01,29.92,10,10,10,15,8,23,0.00,0,,47
2012-4-6,57,44,30,31,27,22,73,53,33,30.32,30.25,30.15,10,10,9,12,6,16,0.00,0,,45
2012-4-7,64,47,30,41,26,18,89,45,16,30.35,30.25,30.14,10,10,9,14,4,24,0.00,1,,185
2012-4-8,60,53,46,46,35,22,86,55,24,30.22,30.16,30.09,10,10,10,26,12,33,0.03,4,Rain,310
2012-4-9,60,52,43,39,30,21,74,46,25,30.09,29.98,29.91,10,10,10,26,12,36,0.00,3,Rain,293
2012-4-10,42,35,28,26,22,19,75,57,46,30.12,30.04,29.97,10,10,10,22,12,30,0.00,5,,303
2012-4-11,54,40,28,32,27,21,82,59,38,30.28,30.21,30.10,10,10,10,15,8,17,0.00,2,,313
2012-4-12,59,42,27,34,29,22,89,59,34,30.31,30.24,30.17,10,10,10,13,3,,0.00,1,,349
2012-4-13,64,46,28,32,28,25,88,50,23,30.26,30.20,30.09,10,10,8,16,5,25,0.00,1,,153
2012-4-14,62,57,52,56,47,31,94,68,40,30.09,29.98,29.90,10,9,5,16,8,,0.01,7,Rain-Thunderstorm,185
2012-4-15,79,67,57,59,57,54,94,70,50,29.90,29.81,29.72,10,8,2,26,12,36,0.03,6,Rain-Thunderstorm,194
2012-4-16,70,58,45,61,47,38,88,67,55,30.20,29.85,29.64,10,10,9,34,20,47,0.15,6,Rain-Thunderstorm,228
2012-4-17,57,45,33,38,35,30,97,68,43,30.39,30.32,30.23,10,9,2,9,4,,0.00,0,,314
2012-4-18,69,50,33,41,36,29,89,57,35,30.33,30.17,30.00,10,10,10,15,5,20,0.00,1,,168
2012-4-19,78,66,55,49,44,39,64,47,27,30.01,29.93,29.79,10,10,10,20,11,25,0.00,4,,208
2012-4-20,70,55,42,50,44,38,93,77,40,29.92,29.80,29.68,10,8,1,18,14,25,0.07,6,Rain,296
2012-4-21,55,46,37,37,31,26,87,62,34,30.02,29.98,29.93,10,10,10,14,11,22,0.00,2,,18
2012-4-22,53,44,37,30,25,19,70,50,32,30.04,30.01,29.99,,,,25,10,32,0.00,2,,34
2012-4-23,57,44,33,24,19,13,64,39,21,30.02,29.89,29.75,10,10,10,32,12,43,0.00,0,,327
2012-4-24,62,48,36,28,25,21,70,43,24,29.75,29.73,29.71,10,10,10,24,12,32,0.00,0,,296
2012-4-25,55,46,37,50,37,22,83,65,37,29.81,29.75,29.70,10,10,6,14,5,,0.10,5,Rain,115
2012-4-26,59,48,37,49,41,22,90,72,35,30.14,29.81,29.62,10,9,4,21,11,33,0.00,5,,346
2012-4-27,55,42,30,26,22,18,66,43,28,30.30,30.21,30.13,10,10,10,14,8,20,0.00,1,,50
2012-4-28,48,44,39,39,35,28,83,69,46,30.25,30.17,30.11,10,10,5,20,10,25,0.21,7,Rain,85
2012-4-29,64,50,35,38,33,30,86,57,28,30.30,30.23,30.15,10,10,5,17,8,23,0.18,2,Rain,86
2012-4-30,64,54,44,61,52,31,94,81,50,30.13,29.96,29.89,10,7,1,12,8,,0.44,8,Rain-Thunderstorm,215